This is the latest recevied weather packets stored in our database for station/object W8RSN-13. If no packets are shown the sender has not sent any weather packets the latest 10 day(s).
| Time | Temp. | Humidity | Pressure | Rain* | Wind** | Luminosity | Snow |
|---|---|---|---|---|---|---|---|
| 1788621268 | 20° C | 51% | 1016.6 hPa | - | - | - | - |
| 1788620967 | 20° C | 51% | 1016.4 hPa | - | - | - | - |
| 1788620666 | 19.44° C | 55% | 1016.4 hPa | - | - | - | - |
| 1788620365 | 18.89° C | 56% | 1016.4 hPa | - | - | - | - |
| 1788620064 | 18.33° C | 57% | 1016.4 hPa | - | - | - | - |
| 1788619763 | 17.78° C | 59% | 1016.4 hPa | - | - | - | - |
| 1788619462 | 17.78° C | 59% | 1016.3 hPa | - | - | - | - |
| 1788619162 | 17.22° C | 60% | 1016.3 hPa | - | - | - | - |
| 1788618860 | 17.22° C | 59% | 1016.2 hPa | - | - | - | - |
| 1788618559 | 17.22° C | 59% | 1016.2 hPa | - | - | - | - |
| 1788618259 | 17.22° C | 60% | 1016.2 hPa | - | - | - | - |
| 1788617958 | 16.67° C | 61% | 1016.2 hPa | - | - | - | - |
| 1788617657 | 16.67° C | 63% | 1016.1 hPa | - | - | - | - |
| 1788617357 | 16.11° C | 67% | 1016.1 hPa | - | - | - | - |
| 1788617076 | 15.56° C | 68% | 1016 hPa | - | - | - | - |
| 1788616775 | 15.56° C | 68% | 1016 hPa | - | - | - | - |
| 1788616475 | 15° C | 68% | 1016 hPa | - | - | - | - |
| 1788616173 | 14.44° C | 69% | 1016 hPa | - | - | - | - |
| 1788615872 | 14.44° C | 70% | 1016.1 hPa | - | - | - | - |
| 1788615571 | 14.44° C | 72% | 1015.9 hPa | - | - | - | - |
| 1788615270 | 14.44° C | 72% | 1015.8 hPa | - | - | - | - |
| 1788614969 | 15° C | 68% | 1015.7 hPa | - | - | - | - |
| 1788614668 | 15° C | 66% | 1015.6 hPa | - | - | - | - |
| 1788614368 | 14.44° C | 68% | 1015.8 hPa | - | - | - | - |
| 1788614079 | 15° C | 72% | 1015.5 hPa | - | - | - | - |
* Rain since midnight (hover to see other rain measurements)
** Current wind speed in m/s (hover to see current wind gust speed)